User: anonymous   Login
Location: Unspecified
(0.0000°N, 0.0000°E)
Time: 12:35:32
(UTC+00:00)
Language:

SJ-6E - Orbit

View from above orbital plane
View from above orbital plane
View from above satellite
View from above satellite

Ground track
Ground track

The orbit data is extracted from the following two-line orbital elements,

1 33408U 08053A   18201.09369184  .00000151  00000-0  19511-4 0  9994
2 33408  97.6812 178.7206 0017338 354.1873   5.9149 14.93795132530186
Epoch (UTC): 20 July 2018 02:14:54
Eccentricity: 0.0017338
inclination: 97.6812°
perigee height: 574 km
apogee height: 598 km
right ascension of ascending node: 178.7206°
argument of perigee: 354.1873°
revolutions per day: 14.93795132
mean anomaly at epoch: 5.9149°
orbit number at epoch: 53018

The dashed part of the orbit path shows where the satellite is in the earth's shadow,  

DLR